Time,TemperatureF,DewpointF,PressureIn,WindDirection,WindDirectionDegrees,WindSpeedMPH,WindSpeedGustMPH,Humidity,HourlyPrecipIn,Conditions,Clouds,dailyrainin,SoftwareType,DateUTC
2013-10-19 00:13:00,41.0,38.0,29.77,West,266,4.0,7.0,90,0.00,,,0.11,,2013-10-19 05:13:00,
2013-10-19 00:22:00,41.0,39.0,29.77,WSW,253,1.0,7.0,91,0.00,,,0.10,,2013-10-19 05:22:00,
2013-10-19 00:42:00,40.0,38.0,29.76,WSW,257,1.0,6.0,91,0.00,,,0.10,,2013-10-19 05:42:00,
2013-10-19 00:52:00,40.0,38.0,29.76,WSW,258,1.0,4.0,91,0.00,,,0.10,,2013-10-19 05:52:00,
2013-10-19 01:12:00,40.0,38.0,29.75,WSW,258,0.0,3.0,91,0.00,,,0.10,,2013-10-19 06:12:00,
2013-10-19 01:22:00,39.0,37.0,29.75,WSW,256,1.0,5.0,92,0.00,,,0.10,,2013-10-19 06:22:00,
2013-10-19 01:42:00,39.0,37.0,29.75,WSW,256,1.0,3.0,92,0.00,,,0.10,,2013-10-19 06:42:00,
2013-10-19 01:52:00,39.0,37.0,29.75,West,279,1.0,4.0,92,0.00,,,0.10,,2013-10-19 06:52:00,
2013-10-19 02:11:00,39.0,37.0,29.76,NW,309,3.0,5.0,92,0.00,,,0.10,,2013-10-19 07:11:00,
2013-10-19 02:22:00,39.0,37.0,29.76,NW,317,5.0,9.0,93,0.00,,,0.10,,2013-10-19 07:22:00,
2013-10-19 02:42:00,40.0,38.0,29.75,NW,306,2.0,6.0,93,0.00,,,0.10,,2013-10-19 07:42:00,
2013-10-19 02:53:00,39.0,37.0,29.75,WNW,302,1.0,5.0,92,0.00,,,0.10,,2013-10-19 07:53:00,
2013-10-19 03:11:00,39.0,37.0,29.75,WNW,302,0.0,2.0,92,0.00,,,0.10,,2013-10-19 08:11:00,
2013-10-19 03:22:00,38.0,36.0,29.76,WNW,302,1.0,3.0,92,0.00,,,0.10,,2013-10-19 08:22:00,
2013-10-19 03:42:00,38.0,36.0,29.75,NW,306,1.0,4.0,92,0.00,,,0.10,,2013-10-19 08:42:00,
2013-10-19 03:52:00,38.0,36.0,29.75,NW,305,1.0,4.0,92,0.00,,,0.10,,2013-10-19 08:52:00,
2013-10-19 04:11:00,38.0,36.0,29.76,NW,305,1.0,4.0,92,0.00,,,0.10,,2013-10-19 09:11:00,
2013-10-19 04:21:00,38.0,36.0,29.76,NW,324,3.0,5.0,92,0.00,,,0.10,,2013-10-19 09:21:00,
2013-10-19 04:43:00,37.0,35.0,29.76,North,351,3.0,9.0,91,0.00,,,0.10,,2013-10-19 09:43:00,
2013-10-19 04:54:00,37.0,35.0,29.77,NNW,327,4.0,7.0,91,0.00,,,0.10,,2013-10-19 09:54:00,
2013-10-19 05:13:00,37.0,34.0,29.77,NNW,342,3.0,5.0,90,0.00,,,0.10,,2013-10-19 10:13:00,
2013-10-19 05:23:00,36.0,33.0,29.77,NW,325,3.0,5.0,89,0.00,,,0.10,,2013-10-19 10:23:00,
2013-10-19 05:42:00,36.0,33.0,29.77,NNW,339,2.0,4.0,87,0.00,,,0.10,,2013-10-19 10:42:00,
2013-10-19 05:53:00,36.0,32.0,29.77,NNW,340,2.0,3.0,86,0.00,,,0.10,,2013-10-19 10:53:00,
2013-10-19 06:12:00,35.0,31.0,29.77,NNW,340,1.0,4.0,85,0.00,,,0.10,,2013-10-19 11:12:00,
2013-10-19 06:22:00,35.0,31.0,29.78,NNW,340,1.0,3.0,86,0.00,,,0.10,,2013-10-19 11:22:00,
2013-10-19 06:42:00,35.0,32.0,29.78,NNW,340,1.0,3.0,87,0.00,,,0.10,,2013-10-19 11:42:00,
2013-10-19 06:52:00,34.0,31.0,29.78,NNW,340,0.0,3.0,89,0.00,,,0.10,,2013-10-19 11:52:00,
2013-10-19 07:12:00,34.0,31.0,29.79,NW,323,4.0,7.0,90,0.00,,,0.10,,2013-10-19 12:12:00,
2013-10-19 07:22:00,34.0,31.0,29.79,NW,323,1.0,5.0,88,0.00,,,0.10,,2013-10-19 12:22:00,
2013-10-19 07:42:00,34.0,31.0,29.79,NW,323,2.0,4.0,88,0.00,,,0.10,,2013-10-19 12:42:00,
2013-10-19 07:52:00,34.0,31.0,29.79,NW,323,2.0,4.0,89,0.00,,,0.10,,2013-10-19 12:52:00,
2013-10-19 08:12:00,34.0,31.0,29.79,NW,323,2.0,5.0,88,0.00,,,0.10,,2013-10-19 13:12:00,
2013-10-19 08:22:00,34.0,31.0,29.79,NW,323,3.0,5.0,87,0.00,,,0.10,,2013-10-19 13:22:00,
2013-10-19 08:42:00,34.0,30.0,29.80,NW,323,2.0,3.0,86,0.00,,,0.10,,2013-10-19 13:42:00,
2013-10-19 08:52:00,35.0,31.0,29.80,NW,323,2.0,4.0,86,0.00,,,0.10,,2013-10-19 13:52:00,
2013-10-19 09:11:00,35.0,31.0,29.80,NW,323,2.0,3.0,86,0.00,,,0.10,,2013-10-19 14:11:00,
2013-10-19 09:21:00,35.0,31.0,29.80,NW,323,2.0,4.0,84,0.00,,,0.09,,2013-10-19 14:21:00,
2013-10-19 09:42:00,35.0,31.0,29.80,NW,323,2.0,3.0,84,0.00,,,0.09,,2013-10-19 14:42:00,
2013-10-19 09:52:00,35.0,30.0,29.80,NW,323,1.0,4.0,83,0.00,,,0.09,,2013-10-19 14:52:00,
2013-10-19 10:11:00,36.0,31.0,29.80,NW,323,0.0,3.0,82,0.00,,,0.09,,2013-10-19 15:11:00,
2013-10-19 10:22:00,36.0,30.0,29.80,NNW,341,4.0,6.0,78,0.00,,,0.02,,2013-10-19 15:22:00,
2013-10-19 10:44:00,36.0,30.0,29.80,NNW,339,2.0,5.0,78,0.00,,,0.02,,2013-10-19 15:44:00,
2013-10-19 10:55:00,37.0,30.0,29.80,NNW,338,3.0,5.0,75,0.00,,,0.02,,2013-10-19 15:55:00,
2013-10-19 11:14:00,37.0,30.0,29.80,NNW,333,4.0,6.0,75,0.00,,,0.02,,2013-10-19 16:14:00,
2013-10-19 11:24:00,37.0,29.0,29.80,NNW,333,2.0,4.0,74,0.00,,,0.01,,2013-10-19 16:24:00,
2013-10-19 11:43:00,38.0,31.0,29.80,NNW,333,1.0,4.0,75,0.00,,,0.01,,2013-10-19 16:43:00,
2013-10-19 11:53:00,38.0,30.0,29.80,NNW,333,0.0,4.0,74,0.00,,,0.01,,2013-10-19 16:53:00,
2013-10-19 12:13:00,39.0,31.0,29.80,WNW,299,2.0,4.0,73,0.00,,,0.01,,2013-10-19 17:13:00,
2013-10-19 12:22:00,39.0,31.0,29.80,WNW,298,3.0,4.0,73,0.00,,,0.01,,2013-10-19 17:22:00,
2013-10-19 12:43:00,39.0,31.0,29.80,WNW,298,1.0,4.0,74,0.00,,,0.01,,2013-10-19 17:43:00,
2013-10-19 12:52:00,40.0,32.0,29.79,West,259,2.0,6.0,73,0.00,,,0.01,,2013-10-19 17:52:00,
2013-10-19 13:12:00,40.0,32.0,29.79,SW,227,3.0,6.0,73,0.00,,,0.01,,2013-10-19 18:12:00,
2013-10-19 13:22:00,41.0,33.0,29.78,SSE,157,4.0,7.0,72,0.00,,,0.01,,2013-10-19 18:22:00,
2013-10-19 13:42:00,42.0,34.0,29.77,SSW,192,2.0,8.0,72,0.00,,,0.01,,2013-10-19 18:42:00,
2013-10-19 13:52:00,44.0,35.0,29.77,South,191,4.0,7.0,70,0.00,,,0.01,,2013-10-19 18:52:00,
2013-10-19 14:12:00,44.0,35.0,29.76,SSE,161,5.0,7.0,70,0.00,,,0.01,,2013-10-19 19:12:00,
2013-10-19 14:22:00,45.0,35.0,29.75,South,182,2.0,9.0,68,0.00,,,0.01,,2013-10-19 19:22:00,
2013-10-19 14:42:00,46.0,36.0,29.75,South,175,3.0,8.0,68,0.00,,,0.01,,2013-10-19 19:42:00,
2013-10-19 14:52:00,46.0,36.0,29.73,SSE,163,5.0,8.0,67,0.00,,,0.01,,2013-10-19 19:52:00,
2013-10-19 15:12:00,46.0,36.0,29.72,SSE,161,4.0,8.0,69,0.00,,,0.01,,2013-10-19 20:12:00,
2013-10-19 15:22:00,46.0,36.0,29.72,SSE,148,3.0,8.0,68,0.00,,,0.01,,2013-10-19 20:22:00,
2013-10-19 15:42:00,46.0,36.0,29.72,SSE,157,4.0,8.0,69,0.00,,,0.01,,2013-10-19 20:42:00,
2013-10-19 15:52:00,46.0,37.0,29.71,SSE,155,2.0,6.0,70,0.00,,,0.01,,2013-10-19 20:52:00,
2013-10-19 16:11:00,46.0,36.0,29.71,SE,136,3.0,6.0,69,0.00,,,0.01,,2013-10-19 21:11:00,
2013-10-19 16:21:00,47.0,38.0,29.70,SSE,160,2.0,5.0,70,0.00,,,0.01,,2013-10-19 21:21:00,
2013-10-19 16:44:00,48.0,38.0,29.70,SSE,148,4.0,6.0,68,0.00,,,0.01,,2013-10-19 21:44:00,
2013-10-19 16:54:00,48.0,38.0,29.69,SE,143,2.0,6.0,69,0.00,,,0.01,,2013-10-19 21:54:00,
2013-10-19 17:14:00,48.0,39.0,29.69,SSE,155,4.0,6.0,70,0.00,,,0.01,,2013-10-19 22:14:00,
2013-10-19 17:24:00,48.0,39.0,29.69,SSE,157,5.0,7.0,70,0.00,,,0.01,,2013-10-19 22:24:00,
2013-10-19 17:43:00,48.0,39.0,29.69,ESE,119,3.0,5.0,70,0.00,,,0.01,,2013-10-19 22:43:00,
2013-10-19 17:53:00,48.0,39.0,29.68,ESE,117,3.0,7.0,72,0.00,,,0.01,,2013-10-19 22:53:00,
2013-10-19 18:12:00,47.0,39.0,29.68,ESE,118,1.0,6.0,74,0.00,,,0.01,,2013-10-19 23:12:00,
2013-10-19 18:22:00,47.0,39.0,29.67,ESE,102,1.0,6.0,74,0.00,,,0.01,,2013-10-19 23:22:00,
2013-10-19 18:42:00,46.0,39.0,29.67,SE,126,2.0,5.0,75,0.00,,,0.01,,2013-10-19 23:42:00,
2013-10-19 18:52:00,46.0,39.0,29.66,ESE,118,2.0,6.0,75,0.00,,,0.01,,2013-10-19 23:52:00,
2013-10-19 19:11:00,46.0,39.0,29.66,ESE,119,0.0,4.0,77,0.00,,,0.01,,2013-10-20 00:11:00,
2013-10-19 19:22:00,45.0,39.0,29.66,SE,128,1.0,5.0,78,0.00,,,0.01,,2013-10-20 00:22:00,
2013-10-19 19:42:00,45.0,39.0,29.65,ESE,122,1.0,4.0,79,0.00,,,0.01,,2013-10-20 00:42:00,
2013-10-19 19:52:00,44.0,38.0,29.64,SE,136,1.0,4.0,80,0.00,,,0.01,,2013-10-20 00:52:00,
2013-10-19 20:11:00,44.0,39.0,29.63,SSE,156,0.0,4.0,81,0.00,,,0.01,,2013-10-20 01:11:00,
2013-10-19 20:22:00,43.0,38.0,29.63,SSE,151,0.0,3.0,82,0.00,,,0.01,,2013-10-20 01:22:00,
2013-10-19 20:42:00,43.0,38.0,29.63,SE,145,0.0,3.0,83,0.00,,,0.01,,2013-10-20 01:42:00,
2013-10-19 20:52:00,43.0,38.0,29.62,SE,145,0.0,1.0,84,0.00,,,0.01,,2013-10-20 01:52:00,
2013-10-19 21:11:00,43.0,39.0,29.62,SE,141,0.0,3.0,85,0.00,,,0.01,,2013-10-20 02:11:00,
2013-10-19 21:22:00,42.0,38.0,29.62,SE,141,1.0,3.0,85,0.00,,,0.01,,2013-10-20 02:22:00,
2013-10-19 21:42:00,42.0,38.0,29.61,ENE,75,0.0,5.0,86,0.00,,,0.01,,2013-10-20 02:42:00,
2013-10-19 21:52:00,42.0,38.0,29.61,East,84,0.0,3.0,86,0.00,,,0.01,,2013-10-20 02:52:00,
2013-10-19 22:12:00,43.0,39.0,29.61,East,84,0.0,2.0,86,0.00,,,0.01,,2013-10-20 03:12:00,
2013-10-19 22:22:00,43.0,39.0,29.61,East,84,0.0,0.0,86,0.00,,,0.01,,2013-10-20 03:22:00,
2013-10-19 22:44:00,43.0,39.0,29.61,East,84,1.0,3.0,87,0.00,,,0.01,,2013-10-20 03:44:00,
2013-10-19 22:55:00,43.0,40.0,29.61,East,80,0.0,4.0,88,0.01,,,0.02,,2013-10-20 03:55:00,
2013-10-19 23:02:00,-999.0,-99.9,29.61,East,92,2.0,5.0,-999,-99.99,,,-99.99,,2013-10-20 04:02:00,
2013-10-19 23:14:00,43.0,40.0,29.61,East,92,2.0,5.0,90,0.01,,,0.02,,2013-10-20 04:14:00,
2013-10-19 23:24:00,42.0,40.0,29.60,East,92,0.0,1.0,91,0.01,,,0.01,,2013-10-20 04:24:00,
2013-10-19 23:44:00,42.0,40.0,29.59,East,92,0.0,1.0,92,0.01,,,0.01,,2013-10-20 04:44:00,
2013-10-19 23:54:00,42.0,40.0,29.59,East,92,2.0,3.0,92,0.00,,,0.01,,2013-10-20 04:54:00,